Voltar ao catálogo

CZ-6A DEB

AtivoSSO
NORAD 54513·DEBRIS·🇨🇳 China

Lançado Nov 11, 2022 de Taiyuan Satellite Launch Center

Loading…

Próximas Passagens (próximas 24 horas)

TLE

AtualizadoSource: Space-Track

Época: Sep 13, 2026, 06:19 UTC

1 54513U 22151JR  26256.26369707  .00000375  00000-0  11404-3 0  9998
2 54513  98.4811 269.3141 0150191  74.3961 287.3747 14.41503933201345

Acompanhe CZ-6A DEB em tempo real com AllMySat

Download on the App Store